| time (UTC) | temp F | wind direction | speed knots | gust knots | rain 1hr in | rain 24hr in | rain mn in | humidity % | barometer mb |
| 20260507175152 | 61 | 253 | 6.1 | 13.0 | 0.00 | 0.00 | 0.00 | 36 | 931.3 |
| 20260507174649 | 61 | 271 | 9.6 | 15.6 | 0.00 | 0.00 | 0.00 | 36 | 931.3 |
| 20260507174148 | 61 | 293 | 4.3 | 11.3 | 0.00 | 0.00 | 0.00 | 37 | 931.3 |
| 20260507173644 | 60 | 261 | 7.0 | 12.2 | 0.00 | 0.00 | 0.00 | 36 | 931.5 |
| 20260507173141 | 60 | 290 | 1.7 | 9.6 | 0.00 | 0.00 | 0.00 | 37 | 931.3 |
| 20260507172637 | 61 | 265 | 5.2 | 9.6 | 0.00 | 0.00 | 0.00 | 36 | 931.2 |
| 20260507172135 | 62 | 257 | 2.6 | 7.0 | 0.00 | 0.00 | 0.00 | 37 | 931.6 |
| 20260507171629 | 61 | 267 | 7.8 | 9.6 | 0.00 | 0.00 | 0.00 | 36 | 931.3 |
| 20260507171127 | 62 | 62 | 7.0 | 14.8 | 0.00 | 0.00 | 0.00 | 36 | 931.6 |
| 20260507170624 | 62 | 320 | 5.2 | 15.6 | 0.00 | 0.00 | 0.00 | 35 | 931.5 |
| 20260507170121 | 62 | 345 | 7.0 | 14.8 | 0.00 | 0.00 | 0.00 | 35 | 931.7 |
| 20260507165616 | 62 | 250 | 9.6 | 13.9 | 0.00 | 0.00 | 0.00 | 36 | 931.8 |
| 20260507165113 | 61 | 278 | 3.5 | 13.0 | 0.00 | 0.00 | 0.00 | 37 | 931.7 |
| 20260507164609 | 61 | 196 | 4.3 | 14.8 | 0.00 | 0.00 | 0.00 | 38 | 931.8 |
| 20260507164106 | 61 | 275 | 6.1 | 7.8 | 0.00 | 0.00 | 0.00 | 37 | 931.7 |
| 20260507163604 | 61 | 287 | 2.6 | 7.8 | 0.00 | 0.00 | 0.00 | 39 | 931.9 |
| 20260507163102 | 59 | 257 | 1.7 | 7.8 | 0.00 | 0.00 | 0.00 | 40 | 932.0 |
| 20260507162601 | 57 | 217 | 7.0 | 9.6 | 0.00 | 0.00 | 0.00 | 41 | 932.1 |
| 20260507162059 | 58 | 214 | 5.2 | 8.7 | 0.00 | 0.00 | 0.00 | 40 | 932.0 |
| 20260507161555 | 59 | 269 | 4.3 | 11.3 | 0.00 | 0.00 | 0.00 | 39 | 932.1 |
| 20260507161051 | 58 | 177 | 5.2 | 7.0 | 0.00 | 0.00 | 0.00 | 40 | 932.3 |
| 20260507160548 | 58 | 124 | 0.0 | 2.6 | 0.00 | 0.00 | 0.00 | 43 | 932.3 |
| 20260507160044 | 57 | 224 | 3.5 | 5.2 | 0.00 | 0.00 | 0.00 | 43 | 932.4 |
| 20260507155539 | 57 | 213 | 4.3 | 5.2 | 0.00 | 0.00 | 0.00 | 44 | 932.5 |
| 20260507155037 | 55 | 158 | 0.0 | 0.9 | 0.00 | 0.00 | 0.00 | 47 | 932.4 |
| 20260507154534 | 53 | 59 | 0.0 | 0.0 | 0.00 | 0.00 | 0.00 | 48 | 932.5 |
| 20260507154031 | 52 | 87 | 0.0 | 2.6 | 0.00 | 0.00 | 0.00 | 51 | 932.4 |
| 20260507153528 | 53 | 54 | 0.0 | 0.0 | 0.00 | 0.00 | 0.00 | 50 | 932.6 |
| 20260507153024 | 52 | 14 | 0.0 | 0.0 | 0.00 | 0.00 | 0.00 | 48 | 932.6 |
| 20260507152519 | 52 | 351 | 0.0 | 0.0 | 0.00 | 0.00 | 0.00 | 48 | 932.5 |
| 20260507152016 | 53 | 350 | 0.0 | 4.3 | 0.00 | 0.00 | 0.00 | 47 | 932.4 |
| 20260507151513 | 53 | 192 | 2.6 | 6.1 | 0.00 | 0.00 | 0.00 | 46 | 932.5 |
| 20260507151010 | 53 | 282 | 0.9 | 2.6 | 0.00 | 0.00 | 0.00 | 46 | 932.4 |
| 20260507150506 | 53 | 233 | 1.7 | 5.2 | 0.00 | 0.00 | 0.00 | 47 | 932.4 |
| 20260507150003 | 53 | 229 | 1.7 | 7.0 | 0.00 | 0.00 | 0.00 | 47 | 932.3 |
| 20260507145458 | 52 | 12 | 0.0 | 0.9 | 0.00 | 0.00 | 0.00 | 51 | 932.4 |
| 20260507144955 | 51 | 186 | 0.0 | 0.9 | 0.00 | 0.00 | 0.00 | 51 | 932.5 |
| 20260507144452 | 50 | 131 | 0.0 | 1.7 | 0.00 | 0.00 | 0.00 | 52 | 932.5 |
| 20260507143949 | 50 | 150 | 0.0 | 2.6 | 0.00 | 0.00 | 0.00 | 51 | 932.4 |
| 20260507143447 | 49 | 53 | 0.0 | 0.0 | 0.00 | 0.00 | 0.00 | 55 | 932.5 |
| 20260507142943 | 48 | 90 | 0.0 | 0.0 | 0.00 | 0.00 | 0.00 | 57 | 932.5 |
| 20260507142439 | 48 | 96 | 0.0 | 0.0 | 0.00 | 0.00 | 0.00 | 57 | 932.9 |
| 20260507141937 | 48 | 131 | 0.0 | 0.0 | 0.00 | 0.00 | 0.00 | 58 | 932.8 |
| 20260507141432 | 46 | 87 | 0.0 | 0.0 | 0.00 | 0.00 | 0.00 | 61 | 932.7 |
| 20260507140929 | 46 | 78 | 0.0 | 0.0 | 0.00 | 0.00 | 0.00 | 63 | 932.7 |
| 20260507140426 | 46 | 92 | 0.0 | 0.0 | 0.00 | 0.00 | 0.00 | 62 | 933.3 |
| 20260507135924 | 45 | 89 | 0.0 | 0.0 | 0.00 | 0.00 | 0.00 | 63 | 933.1 |
| 20260507135420 | 45 | 97 | 0.0 | 0.0 | 0.00 | 0.00 | 0.00 | 62 | 933.2 |
| 20260507134918 | 45 | 80 | 0.0 | 0.0 | 0.00 | 0.00 | 0.00 | 62 | 933.5 |
| 20260507134414 | 44 | 93 | 0.0 | 0.0 | 0.00 | 0.00 | 0.00 | 64 | 933.7 |
| 20260507133910 | 43 | 84 | 0.0 | 0.0 | 0.00 | 0.00 | 0.00 | 69 | 934.0 |
| 20260507133406 | 42 | 60 | 0.0 | 0.9 | 0.00 | 0.00 | 0.00 | 69 | 934.1 |
| 20260507132905 | 41 | 113 | 3.5 | 5.2 | 0.00 | 0.00 | 0.00 | 69 | 934.4 |
| 20260507132400 | 41 | 114 | 0.9 | 4.3 | 0.00 | 0.00 | 0.00 | 70 | 934.4 |
| 20260507131858 | 41 | 117 | 4.3 | 6.1 | 0.00 | 0.00 | 0.00 | 70 | 934.1 |
| 20260507131354 | 41 | 105 | 2.6 | 5.2 | 0.00 | 0.00 | 0.00 | 70 | 933.1 |
| 20260507130851 | 41 | 123 | 0.0 | 2.6 | 0.00 | 0.00 | 0.00 | 71 | 932.1 |
| 20260507130348 | 40 | 140 | 0.0 | 0.9 | 0.00 | 0.00 | 0.00 | 72 | 932.0 |
| 20260507125847 | 39 | 54 | 0.0 | 0.0 | 0.00 | 0.00 | 0.00 | 74 | 932.1 |
| 20260507125344 | 39 | 67 | 0.0 | 0.0 | 0.00 | 0.00 | 0.00 | 74 | 931.9 |
| 20260507124842 | 39 | 93 | 0.0 | 1.7 | 0.00 | 0.00 | 0.00 | 74 | 932.1 |
| 20260507124338 | 39 | 64 | 0.0 | 0.9 | 0.00 | 0.00 | 0.00 | 72 | 932.0 |
| 20260507123837 | 40 | 66 | 0.0 | 0.0 | 0.00 | 0.00 | 0.00 | 70 | 931.9 |
| 20260507123333 | 41 | 109 | 0.0 | 0.0 | 0.00 | 0.00 | 0.00 | 67 | 932.0 |
| 20260507122830 | 41 | 115 | 0.0 | 0.0 | 0.00 | 0.00 | 0.00 | 69 | 932.0 |
| 20260507122325 | 40 | 33 | 0.0 | 0.0 | 0.00 | 0.00 | 0.00 | 68 | 931.9 |
| 20260507121822 | 39 | 45 | 0.0 | 0.0 | 0.00 | 0.00 | 0.00 | 73 | 931.9 |
| 20260507121317 | 39 | 50 | 0.0 | 0.0 | 0.00 | 0.00 | 0.00 | 73 | 931.9 |
| 20260507120814 | 38 | 42 | 0.0 | 0.0 | 0.00 | 0.00 | 0.00 | 75 | 931.8 |
| 20260507120310 | 37 | 53 | 0.0 | 0.0 | 0.00 | 0.00 | 0.00 | 76 | 932.0 |
| 20260507115806 | 37 | 81 | 0.0 | 0.0 | 0.00 | 0.00 | 0.00 | 77 | 932.0 |
| 20260507115306 | 36 | 64 | 0.0 | 0.0 | 0.00 | 0.00 | 0.00 | 78 | 931.8 |
| 20260507114758 | 36 | 55 | 0.0 | 0.0 | 0.00 | 0.00 | 0.00 | 77 | 931.7 |
| 20260507114256 | 37 | 73 | 0.0 | 0.0 | 0.00 | 0.00 | 0.00 | 75 | 931.9 |
| 20260507113753 | 37 | 80 | 0.0 | 0.0 | 0.00 | 0.00 | 0.00 | 74 | 931.9 |
| 20260507113249 | 37 | 46 | 0.0 | 0.0 | 0.00 | 0.00 | 0.00 | 76 | 932.1 |
| 20260507112748 | 37 | 45 | 0.0 | 0.0 | 0.00 | 0.00 | 0.00 | 76 | 931.8 |
| 20260507112244 | 37 | 45 | 0.0 | 0.0 | 0.00 | 0.00 | 0.00 | 76 | 931.7 |
| 20260507111742 | 37 | 42 | 0.9 | 1.7 | 0.00 | 0.00 | 0.00 | 76 | 931.9 |
| 20260507111238 | 37 | 74 | 0.0 | 0.0 | 0.00 | 0.00 | 0.00 | 76 | 931.8 |
| 20260507110734 | 37 | 78 | 0.0 | 0.0 | 0.00 | 0.00 | 0.00 | 76 | 931.9 |
| 20260507110231 | 37 | 72 | 0.0 | 0.0 | 0.00 | 0.00 | 0.00 | 77 | 931.9 |
| 20260507105728 | 37 | 91 | 0.0 | 0.0 | 0.00 | 0.00 | 0.00 | 77 | 932.1 |
| 20260507105224 | 37 | 94 | 0.0 | 0.0 | 0.00 | 0.00 | 0.00 | 75 | 932.3 |
| 20260507104721 | 37 | 97 | 0.0 | 2.6 | 0.00 | 0.00 | 0.00 | 75 | 932.3 |
| 20260507104218 | 37 | 123 | 3.5 | 4.3 | 0.00 | 0.00 | 0.00 | 75 | 932.4 |
| 20260507103714 | 37 | 115 | 0.0 | 0.0 | 0.00 | 0.00 | 0.00 | 76 | 932.4 |
| 20260507103210 | 37 | 120 | 0.0 | 0.0 | 0.00 | 0.00 | 0.00 | 76 | 932.3 |
| 20260507102707 | 37 | 122 | 0.0 | 0.9 | 0.00 | 0.00 | 0.00 | 76 | 932.3 |
| 20260507102204 | 37 | 132 | 0.0 | 0.0 | 0.00 | 0.00 | 0.00 | 75 | 932.6 |
| 20260507101659 | 37 | 91 | 0.0 | 0.0 | 0.00 | 0.00 | 0.00 | 75 | 932.7 |
| 20260507101155 | 36 | 100 | 0.0 | 0.0 | 0.00 | 0.00 | 0.00 | 76 | 932.3 |
| 20260507100653 | 36 | 99 | 0.0 | 0.9 | 0.00 | 0.00 | 0.00 | 75 | 932.6 |
| 20260507100151 | 37 | 116 | 0.0 | 0.0 | 0.00 | 0.00 | 0.00 | 75 | 932.5 |
| 20260507095648 | 37 | 90 | 0.0 | 0.0 | 0.00 | 0.00 | 0.00 | 76 | 932.6 |
| 20260507095145 | 37 | 89 | 0.0 | 0.0 | 0.00 | 0.00 | 0.00 | 76 | 932.9 |
| 20260507094641 | 36 | 81 | 0.0 | 0.0 | 0.00 | 0.00 | 0.00 | 76 | 932.6 |
| 20260507094138 | 36 | 79 | 0.0 | 0.0 | 0.00 | 0.00 | 0.00 | 76 | 932.7 |
| 20260507093635 | 36 | 83 | 0.0 | 0.0 | 0.00 | 0.00 | 0.00 | 77 | 932.6 |
| 20260507093134 | 35 | 78 | 0.0 | 0.0 | 0.00 | 0.00 | 0.00 | 77 | 932.7 |
| 20260507092631 | 36 | 48 | 0.0 | 0.0 | 0.00 | 0.00 | 0.00 | 77 | 932.7 |
| 20260507092127 | 36 | 51 | 0.0 | 0.0 | 0.00 | 0.00 | 0.00 | 76 | 932.8 |
| 20260507091624 | 36 | 50 | 0.0 | 0.0 | 0.00 | 0.00 | 0.00 | 76 | 932.8 |
| 20260507091119 | 36 | 93 | 0.0 | 0.0 | 0.00 | 0.00 | 0.00 | 75 | 932.7 |
| 20260507090616 | 37 | 87 | 0.0 | 0.0 | 0.00 | 0.00 | 0.00 | 75 | 932.9 |
| 20260507090113 | 37 | 73 | 0.0 | 0.0 | 0.00 | 0.00 | 0.00 | 75 | 932.9 |
| 20260507085610 | 36 | 72 | 0.0 | 0.0 | 0.00 | 0.00 | 0.00 | 76 | 932.7 |
| 20260507085106 | 36 | 68 | 0.0 | 0.0 | 0.00 | 0.00 | 0.00 | 76 | 933.1 |
| 20260507084603 | 36 | 70 | 0.0 | 0.0 | 0.00 | 0.00 | 0.00 | 75 | 933.2 |
| 20260507084100 | 36 | 82 | 0.0 | 0.0 | 0.00 | 0.00 | 0.00 | 76 | 932.8 |
| 20260507083556 | 37 | 62 | 0.0 | 0.0 | 0.00 | 0.00 | 0.00 | 76 | 933.1 |
| 20260507083054 | 37 | 49 | 0.0 | 0.0 | 0.00 | 0.00 | 0.00 | 75 | 933.1 |
| 20260507082549 | 36 | 57 | 0.0 | 0.0 | 0.00 | 0.00 | 0.00 | 77 | 933.2 |
| 20260507082046 | 36 | 58 | 0.0 | 0.0 | 0.00 | 0.00 | 0.00 | 77 | 933.2 |
| 20260507081542 | 36 | 67 | 0.0 | 0.0 | 0.00 | 0.00 | 0.00 | 77 | 933.1 |
| 20260507081040 | 36 | 90 | 0.0 | 0.0 | 0.00 | 0.00 | 0.00 | 76 | 933.2 |
| 20260507080535 | 37 | 76 | 0.0 | 0.0 | 0.00 | 0.00 | 0.00 | 76 | 933.2 |
| 20260507080032 | 37 | 46 | 0.0 | 0.0 | 0.00 | 0.00 | 0.00 | 75 | 933.1 |
| 20260507075527 | 37 | 68 | 0.0 | 0.0 | 0.00 | 0.00 | 0.00 | 74 | 933.2 |
| 20260507075024 | 37 | 65 | 0.0 | 0.0 | 0.00 | 0.00 | 0.00 | 75 | 933.2 |
| 20260507074520 | 37 | 63 | 0.0 | 0.0 | 0.00 | 0.00 | 0.00 | 75 | 933.4 |
| 20260507074019 | 37 | 66 | 0.0 | 0.0 | 0.00 | 0.00 | 0.00 | 75 | 933.4 |
| 20260507073515 | 37 | 58 | 0.0 | 0.0 | 0.00 | 0.00 | 0.00 | 75 | 933.2 |
| 20260507073012 | 37 | 54 | 0.0 | 0.0 | 0.00 | 0.00 | 0.00 | 75 | 933.3 |
| 20260507072509 | 36 | 66 | 0.0 | 0.0 | 0.00 | 0.00 | 0.00 | 77 | 933.3 |
| 20260507072006 | 37 | 77 | 0.0 | 0.0 | 0.00 | 0.00 | 0.00 | 76 | 933.5 |
| 20260507071504 | 37 | 75 | 0.0 | 0.0 | 0.00 | 0.00 | 0.00 | 75 | 933.3 |
| 20260507071000 | 37 | 61 | 0.0 | 0.0 | 0.00 | 0.00 | 0.00 | 75 | 933.4 |
| 20260507070457 | 37 | 60 | 0.0 | 0.0 | 0.00 | 0.00 | 0.00 | 75 | 933.4 |
| 20260507065954 | 38 | 52 | 0.0 | 0.0 | 0.00 | 0.00 | 0.00 | 74 | 933.5 |
| 20260507065451 | 38 | 49 | 0.0 | 0.0 | 0.00 | 0.00 | 0.00 | 73 | 933.4 |
| 20260507064948 | 39 | 59 | 0.0 | 0.0 | 0.00 | 0.00 | 0.00 | 72 | 933.4 |
| 20260507064446 | 39 | 88 | 0.0 | 0.0 | 0.00 | 0.00 | 0.00 | 72 | 933.6 |
| 20260507063943 | 39 | 53 | 0.0 | 0.0 | 0.00 | 0.00 | 0.00 | 73 | 933.4 |
| 20260507063440 | 39 | 65 | 0.0 | 1.7 | 0.00 | 0.00 | 0.00 | 74 | 933.5 |
| 20260507062937 | 38 | 71 | 0.0 | 0.0 | 0.00 | 0.00 | 0.00 | 74 | 933.3 |
| 20260507062434 | 38 | 47 | 0.0 | 0.0 | 0.00 | 0.00 | 0.00 | 74 | 933.3 |
| 20260507061932 | 39 | 45 | 0.0 | 0.0 | 0.00 | 0.00 | 0.00 | 72 | 933.5 |
| 20260507061429 | 39 | 83 | 0.0 | 0.0 | 0.00 | 0.00 | 0.00 | 71 | 933.5 |
| 20260507060928 | 39 | 29 | 0.0 | 0.0 | 0.00 | 0.00 | 0.00 | 71 | 933.4 |
| 20260507060424 | 39 | 48 | 0.0 | 0.0 | 0.00 | 0.00 | 0.00 | 70 | 933.6 |
| 20260507055921 | 40 | 52 | 0.0 | 0.0 | 0.00 | 0.00 | 0.00 | 69 | 933.4 |
| 20260507055416 | 40 | 35 | 0.0 | 0.0 | 0.00 | 0.00 | 0.00 | 68 | 933.5 |
| 20260507054914 | 41 | 45 | 0.0 | 0.0 | 0.00 | 0.00 | 0.00 | 66 | 933.4 |
| 20260507054409 | 41 | 38 | 0.0 | 0.0 | 0.00 | 0.00 | 0.00 | 65 | 933.4 |
| 20260507053907 | 42 | 15 | 0.0 | 0.0 | 0.00 | 0.00 | 0.00 | 63 | 933.5 |
| 20260507053404 | 43 | 358 | 0.0 | 0.0 | 0.00 | 0.00 | 0.00 | 61 | 933.3 |
| 20260507052903 | 43 | 356 | 0.0 | 0.0 | 0.00 | 0.00 | 0.00 | 61 | 933.3 |
| 20260507052400 | 43 | 40 | 0.0 | 0.0 | 0.00 | 0.00 | 0.00 | 60 | 933.4 |
| 20260507051857 | 43 | 33 | 0.0 | 0.0 | 0.00 | 0.00 | 0.00 | 61 | 933.4 |
| 20260507051354 | 43 | 34 | 0.0 | 0.0 | 0.00 | 0.00 | 0.00 | 59 | 933.1 |
| 20260507050851 | 43 | 35 | 0.0 | 0.0 | 0.00 | 0.00 | 0.00 | 61 | 933.3 |
| 20260507050348 | 43 | 44 | 0.0 | 0.0 | 0.00 | 0.00 | 0.00 | 62 | 933.5 |
| 20260507045845 | 43 | 56 | 0.0 | 0.0 | 0.00 | 0.00 | 0.00 | 63 | 933.3 |
| 20260507045341 | 43 | 52 | 0.0 | 0.0 | 0.00 | 0.00 | 0.00 | 63 | 933.3 |
| 20260507044838 | 43 | 50 | 0.0 | 0.0 | 0.00 | 0.00 | 0.00 | 64 | 933.5 |
| 20260507044335 | 44 | 61 | 0.0 | 0.0 | 0.00 | 0.00 | 0.00 | 62 | 933.4 |
| 20260507043830 | 46 | 35 | 0.0 | 0.0 | 0.00 | 0.00 | 0.00 | 54 | 933.3 |
| 20260507043327 | 47 | 291 | 0.0 | 0.0 | 0.00 | 0.00 | 0.00 | 50 | 933.4 |
| 20260507042824 | 47 | 258 | 0.0 | 0.0 | 0.00 | 0.00 | 0.00 | 51 | 933.2 |
| 20260507042319 | 47 | 241 | 0.0 | 4.3 | 0.00 | 0.00 | 0.00 | 51 | 933.3 |
| 20260507041817 | 46 | 223 | 4.3 | 7.0 | 0.00 | 0.00 | 0.00 | 52 | 933.2 |
| 20260507041313 | 46 | 217 | 2.6 | 6.1 | 0.00 | 0.00 | 0.00 | 54 | 933.4 |
| 20260507040810 | 46 | 224 | 3.5 | 7.8 | 0.00 | 0.00 | 0.00 | 55 | 933.3 |
| 20260507040306 | 46 | 219 | 4.3 | 7.8 | 0.00 | 0.00 | 0.00 | 56 | 933.2 |
| 20260507035802 | 46 | 217 | 0.0 | 7.0 | 0.00 | 0.00 | 0.00 | 55 | 933.4 |
| 20260507035257 | 46 | 267 | 1.7 | 6.1 | 0.00 | 0.00 | 0.00 | 54 | 933.3 |
| 20260507034756 | 47 | 204 | 2.6 | 6.1 | 0.00 | 0.00 | 0.00 | 53 | 932.9 |
| 20260507034252 | 47 | 241 | 0.0 | 7.8 | 0.00 | 0.00 | 0.00 | 53 | 933.3 |
| 20260507033751 | 47 | 226 | 4.3 | 6.1 | 0.00 | 0.00 | 0.00 | 53 | 933.3 |
| 20260507033248 | 47 | 221 | 0.9 | 7.0 | 0.00 | 0.00 | 0.00 | 54 | 933.2 |
| 20260507032745 | 47 | 212 | 2.6 | 6.1 | 0.00 | 0.00 | 0.00 | 53 | 932.9 |
| 20260507032241 | 48 | 215 | 0.0 | 0.9 | 0.00 | 0.00 | 0.00 | 53 | 932.8 |
| 20260507031738 | 48 | 242 | 0.0 | 6.1 | 0.00 | 0.00 | 0.00 | 54 | 932.7 |
| 20260507031235 | 48 | 292 | 3.5 | 5.2 | 0.00 | 0.00 | 0.00 | 55 | 932.9 |
| 20260507030731 | 48 | 230 | 0.0 | 0.0 | 0.00 | 0.00 | 0.00 | 54 | 932.5 |
| 20260507030229 | 49 | 288 | 0.0 | 0.0 | 0.00 | 0.00 | 0.00 | 52 | 932.4 |
| 20260507025726 | 49 | 238 | 0.0 | 0.0 | 0.00 | 0.00 | 0.00 | 52 | 932.3 |
| 20260507025223 | 50 | 252 | 0.0 | 1.7 | 0.00 | 0.00 | 0.00 | 50 | 932.3 |
| 20260507024721 | 50 | 297 | 0.0 | 5.2 | 0.00 | 0.00 | 0.00 | 48 | 932.4 |
| 20260507024218 | 51 | 247 | 0.0 | 2.6 | 0.00 | 0.00 | 0.00 | 46 | 932.3 |
| 20260507023713 | 51 | 253 | 0.0 | 1.7 | 0.00 | 0.00 | 0.00 | 44 | 932.1 |
| 20260507023211 | 51 | 273 | 0.0 | 4.3 | 0.00 | 0.00 | 0.00 | 44 | 932.1 |
| 20260507022708 | 52 | 316 | 0.0 | 6.1 | 0.00 | 0.00 | 0.00 | 43 | 932.3 |
| 20260507022204 | 52 | 265 | 0.9 | 7.0 | 0.00 | 0.00 | 0.00 | 42 | 932.0 |
| 20260507021700 | 53 | 247 | 0.9 | 5.2 | 0.00 | 0.00 | 0.00 | 40 | 932.1 |
| 20260507021155 | 54 | 265 | 0.9 | 2.6 | 0.00 | 0.00 | 0.00 | 38 | 932.0 |
| 20260507020654 | 54 | 335 | 0.9 | 4.3 | 0.00 | 0.00 | 0.00 | 37 | 932.3 |
| 20260507020149 | 55 | 330 | 0.0 | 2.6 | 0.00 | 0.00 | 0.00 | 37 | 932.6 |
| 20260507015648 | 55 | 17 | 1.7 | 5.2 | 0.00 | 0.00 | 0.00 | 35 | 932.7 |
| 20260507015145 | 56 | 50 | 0.0 | 0.0 | 0.00 | 0.00 | 0.00 | 36 | 932.7 |
| 20260507014641 | 56 | 305 | 0.0 | 5.2 | 0.00 | 0.00 | 0.00 | 36 | 932.7 |
| 20260507014138 | 55 | 333 | 0.9 | 2.6 | 0.00 | 0.00 | 0.00 | 36 | 932.9 |
| 20260507013635 | 55 | 350 | 0.9 | 6.1 | 0.00 | 0.00 | 0.00 | 35 | 932.6 |
| 20260507013132 | 56 | 331 | 4.3 | 7.8 | 0.00 | 0.00 | 0.00 | 35 | 932.6 |
| 20260507012629 | 56 | 313 | 6.1 | 9.6 | 0.00 | 0.00 | 0.00 | 34 | 932.5 |
| 20260507012124 | 55 | 325 | 6.1 | 8.7 | 0.00 | 0.00 | 0.00 | 34 | 932.4 |
| 20260507011623 | 55 | 297 | 7.0 | 11.3 | 0.00 | 0.00 | 0.00 | 34 | 932.6 |
| 20260507011119 | 55 | 327 | 6.1 | 8.7 | 0.00 | 0.00 | 0.00 | 34 | 932.6 |
| 20260507010614 | 56 | 325 | 6.1 | 11.3 | 0.00 | 0.00 | 0.00 | 35 | 932.5 |
| 20260507010110 | 56 | 334 | 4.3 | 7.0 | 0.00 | 0.00 | 0.00 | 35 | 932.6 |
| 20260507005608 | 56 | 351 | 1.7 | 7.8 | 0.00 | 0.00 | 0.00 | 33 | 932.7 |
| 20260507005103 | 56 | 322 | 0.9 | 11.3 | 0.00 | 0.00 | 0.00 | 34 | 932.7 |
| 20260507004600 | 57 | 324 | 7.8 | 12.2 | 0.00 | 0.00 | 0.00 | 34 | 932.6 |
| 20260507004058 | 56 | 352 | 1.7 | 11.3 | 0.00 | 0.00 | 0.00 | 34 | 932.5 |
| 20260507003554 | 56 | 358 | 5.2 | 12.2 | 0.00 | 0.00 | 0.00 | 35 | 932.6 |
| 20260507003049 | 57 | 320 | 3.5 | 6.1 | 0.00 | 0.00 | 0.00 | 35 | 932.9 |
| 20260507002546 | 56 | 311 | 0.9 | 9.6 | 0.00 | 0.00 | 0.00 | 36 | 932.7 |
| 20260507002041 | 56 | 314 | 8.7 | 8.7 | 0.00 | 0.00 | 0.00 | 35 | 932.7 |
| 20260507001538 | 57 | 325 | 3.5 | 6.1 | 0.00 | 0.00 | 0.00 | 35 | 932.6 |
| 20260507001036 | 57 | 2 | 3.5 | 5.2 | 0.00 | 0.00 | 0.00 | 34 | 932.5 |
| 20260507000532 | 57 | 357 | 3.5 | 6.1 | 0.00 | 0.00 | 0.00 | 36 | 932.7 |
| 20260507000027 | 56 | 325 | 0.0 | 5.2 | 0.00 | 0.00 | 0.00 | 36 | 932.7 |
| 20260506235525 | 55 | 338 | 2.6 | 7.8 | 0.00 | 0.00 | 0.00 | 36 | 932.7 |
| 20260506235021 | 56 | 326 | 7.8 | 13.0 | 0.00 | 0.00 | 0.00 | 37 | 932.9 |
| 20260506234519 | 56 | 279 | 0.9 | 6.1 | 0.00 | 0.00 | 0.00 | 39 | 932.8 |
| 20260506234016 | 56 | 234 | 0.9 | 1.7 | 0.00 | 0.00 | 0.00 | 40 | 932.8 |
| 20260506233512 | 55 | 195 | 0.9 | 5.2 | 0.00 | 0.00 | 0.00 | 42 | 932.9 |
| 20260506233009 | 54 | 311 | 3.5 | 7.8 | 0.00 | 0.00 | 0.00 | 42 | 932.7 |
| 20260506232505 | 56 | 310 | 7.8 | 9.6 | 0.00 | 0.00 | 0.00 | 41 | 932.7 |
| 20260506232001 | 56 | 173 | 0.0 | 1.7 | 0.00 | 0.00 | 0.00 | 42 | 932.7 |
| 20260506231458 | 56 | 241 | 0.0 | 4.3 | 0.00 | 0.00 | 0.00 | 42 | 932.9 |
| 20260506230956 | 55 | 203 | 0.0 | 4.3 | 0.00 | 0.00 | 0.00 | 44 | 932.9 |
| 20260506230451 | 55 | 308 | 8.7 | 11.3 | 0.00 | 0.00 | 0.00 | 42 | 932.7 |
| 20260506225948 | 55 | 265 | 0.9 | 2.6 | 0.00 | 0.00 | 0.00 | 42 | 932.8 |
| 20260506225446 | 56 | 260 | 2.6 | 8.7 | 0.00 | 0.00 | 0.00 | 43 | 932.7 |
| 20260506224943 | 54 | 297 | 0.0 | 4.3 | 0.00 | 0.00 | 0.00 | 44 | 932.8 |
| 20260506224440 | 54 | 303 | 1.7 | 5.2 | 0.00 | 0.00 | 0.00 | 43 | 932.7 |
| 20260506223936 | 55 | 194 | 4.3 | 8.7 | 0.00 | 0.00 | 0.00 | 42 | 932.8 |
| 20260506223432 | 53 | 220 | 4.3 | 8.7 | 0.00 | 0.00 | 0.00 | 44 | 932.9 |
| 20260506222929 | 55 | 214 | 4.3 | 6.1 | 0.00 | 0.00 | 0.00 | 42 | 932.7 |
| 20260506222426 | 54 | 339 | 1.7 | 6.1 | 0.00 | 0.00 | 0.00 | 43 | 933.2 |
| 20260506221923 | 53 | 337 | 1.7 | 7.0 | 0.00 | 0.00 | 0.00 | 44 | 933.1 |
| 20260506221420 | 52 | 348 | 0.0 | 8.7 | 0.00 | 0.00 | 0.00 | 43 | 933.2 |
| 20260506220918 | 53 | 33 | 0.9 | 2.6 | 0.00 | 0.00 | 0.00 | 42 | 933.2 |
| 20260506220413 | 53 | 274 | 0.0 | 2.6 | 0.00 | 0.00 | 0.00 | 44 | 932.9 |
| 20260506215910 | 52 | 24 | 0.0 | 0.9 | 0.00 | 0.00 | 0.00 | 43 | 933.2 |
| 20260506215406 | 52 | 240 | 0.0 | 0.0 | 0.00 | 0.00 | 0.00 | 42 | 933.2 |
| 20260506214902 | 52 | 305 | 4.3 | 7.8 | 0.00 | 0.00 | 0.00 | 45 | 933.2 |
| 20260506214359 | 51 | 170 | 0.0 | 0.0 | 0.00 | 0.00 | 0.00 | 43 | 933.4 |
| 20260506213857 | 50 | 280 | 4.3 | 6.1 | 0.00 | 0.00 | 0.00 | 44 | 933.2 |
| 20260506213354 | 51 | 343 | 2.6 | 7.8 | 0.00 | 0.00 | 0.00 | 44 | 933.4 |
| 20260506212851 | 51 | 308 | 4.3 | 6.1 | 0.00 | 0.00 | 0.00 | 43 | 933.3 |
| 20260506212347 | 49 | 351 | 0.0 | 9.6 | 0.00 | 0.00 | 0.00 | 43 | 933.5 |
| 20260506211842 | 49 | 0 | 0.0 | 7.0 | 0.00 | 0.00 | 0.00 | 43 | 933.6 |
| 20260506211338 | 49 | 328 | 2.6 | 6.1 | 0.00 | 0.00 | 0.00 | 42 | 933.5 |
| 20260506210835 | 49 | 44 | 0.0 | 0.0 | 0.00 | 0.00 | 0.00 | 40 | 933.7 |
| 20260506210332 | 48 | 331 | 2.6 | 5.2 | 0.00 | 0.00 | 0.00 | 41 | 933.7 |
| 20260506205830 | 49 | 330 | 3.5 | 12.2 | 0.00 | 0.00 | 0.00 | 41 | 933.6 |
| 20260506205325 | 51 | 1 | 4.3 | 8.7 | 0.00 | 0.00 | 0.00 | 37 | 933.3 |
| 20260506204822 | 51 | 299 | 0.0 | 0.9 | 0.00 | 0.00 | 0.00 | 38 | 933.5 |
| 20260506204320 | 50 | 258 | 0.9 | 4.3 | 0.00 | 0.00 | 0.00 | 39 | 933.6 |
| 20260506203817 | 49 | 353 | 0.0 | 6.1 | 0.00 | 0.00 | 0.00 | 38 | 933.4 |
| 20260506203314 | 48 | 337 | 0.0 | 1.7 | 0.00 | 0.00 | 0.00 | 39 | 933.5 |
| 20260506202811 | 48 | 333 | 3.5 | 7.8 | 0.00 | 0.00 | 0.00 | 38 | 933.5 |
| 20260506202308 | 49 | 290 | 5.2 | 6.1 | 0.00 | 0.00 | 0.00 | 36 | 933.6 |
| 20260506201804 | 47 | 298 | 6.1 | 8.7 | 0.00 | 0.00 | 0.00 | 38 | 933.5 |
| 20260506201302 | 46 | 352 | 4.3 | 6.1 | 0.00 | 0.00 | 0.00 | 38 | 933.5 |
| 20260506200759 | 47 | 23 | 0.0 | 0.0 | 0.00 | 0.00 | 0.00 | 36 | 933.5 |
| 20260506200255 | 47 | 314 | 0.9 | 5.2 | 0.00 | 0.00 | 0.00 | 37 | 933.4 |
| 20260506195751 | 47 | 258 | 0.0 | 1.7 | 0.00 | 0.00 | 0.00 | 38 | 933.5 |
| 20260506195248 | 47 | 318 | 0.9 | 6.1 | 0.00 | 0.00 | 0.00 | 36 | 933.4 |
| 20260506194745 | 47 | 291 | 0.0 | 6.1 | 0.00 | 0.00 | 0.00 | 35 | 933.4 |
| 20260506194241 | 47 | 232 | 0.0 | 0.9 | 0.00 | 0.00 | 0.00 | 37 | 933.6 |
| 20260506193740 | 46 | 306 | 0.9 | 5.2 | 0.00 | 0.00 | 0.00 | 43 | 933.4 |
| 20260506193236 | 45 | 304 | 4.3 | 7.0 | 0.00 | 0.00 | 0.00 | 39 | 933.3 |
| 20260506192732 | 45 | 334 | 3.5 | 9.6 | 0.00 | 0.00 | 0.00 | 42 | 933.5 |
| 20260506192229 | 46 | 321 | 7.0 | 8.7 | 0.00 | 0.00 | 0.00 | 43 | 933.3 |
| 20260506191726 | 44 | 334 | 0.0 | 8.7 | 0.00 | 0.00 | 0.00 | 44 | 933.7 |
| 20260506191222 | 44 | 6 | 7.8 | 11.3 | 0.00 | 0.00 | 0.00 | 41 | 933.4 |
| 20260506190720 | 45 | 343 | 7.8 | 9.6 | 0.00 | 0.00 | 0.00 | 41 | 933.5 |
| 20260506190216 | 44 | 267 | 4.3 | 7.8 | 0.00 | 0.00 | 0.00 | 47 | 933.5 |
| 20260506185713 | 45 | 299 | 2.6 | 7.0 | 0.00 | 0.00 | 0.00 | 49 | 933.9 |
| 20260506185209 | 44 | 232 | 4.3 | 5.2 | 0.00 | 0.00 | 0.00 | 51 | 933.5 |
| 20260506184707 | 43 | 292 | 3.5 | 7.8 | 0.00 | 0.00 | 0.00 | 51 | 933.6 |
| 20260506184204 | 43 | 346 | 6.1 | 7.8 | 0.00 | 0.00 | 0.00 | 52 | 933.5 |
| 20260506183701 | 42 | 352 | 7.8 | 9.6 | 0.00 | 0.00 | 0.00 | 56 | 933.7 |
| 20260506183157 | 43 | 272 | 4.3 | 7.8 | 0.00 | 0.00 | 0.00 | 54 | 933.2 |
| 20260506182654 | 43 | 6 | 2.6 | 4.3 | 0.00 | 0.00 | 0.00 | 54 | 933.5 |
| 20260506182151 | 44 | 310 | 6.1 | 12.2 | 0.00 | 0.00 | 0.00 | 55 | 933.5 |
| 20260506181649 | 44 | 326 | 2.6 | 2.6 | 0.00 | 0.00 | 0.00 | 50 | 933.7 |
| 20260506181146 | 43 | 353 | 9.6 | 11.3 | 0.00 | 0.00 | 0.00 | 48 | 933.6 |
| 20260506180643 | 43 | 316 | 4.3 | 5.2 | 0.00 | 0.00 | 0.00 | 52 | 933.4 |
| 20260506180139 | 42 | 359 | 4.3 | 6.1 | 0.00 | 0.00 | 0.00 | 52 | 933.5 |
| 20260506175636 | 43 | 123 | 2.6 | 2.6 | 0.00 | 0.00 | 0.00 | 53 | 933.2 |